Location: Lango�lan
(48.1202°N, 3.2340°W)
Time: 01:32:42
(UTC+00:00)

MSX - Pass Details

Date: 23 October 2019
Orbit: 894 x 906 km, 98.7° (Epoch: 17 November)

Event Time Altitude Azimuth Distance (km) Brightness Sun altitude
Rises 05:11:46 0° 9° (N) 3,522 7.1 -16.0°
Reaches altitude 10° 05:14:16 10° 4° (N) 2,578 6.3 -15.6°
Maximum altitude 05:19:40 44° 294° (WNW) 1,220 4.1 -14.7°
Drops below altitude 10° 05:25:02 10° 224° (SW) 2,564 5.8 -13.8°
Sets 05:27:31 0° 218° (SW) 3,501 6.6 -13.4°
